Location: Unspecified
(0.0000°N, 0.0000°E)
Time: 17:58:29
(UTC+00:00)

STARLINK 1058 - Pass Details

Date: 23 January 2020
Orbit: 548 x 551 km, 53.0° (Epoch: 17 January)

Event Time Altitude Azimuth Distance (km) Brightness Sun altitude
Exits shadow 05:18:32 16° 265° (W) 1,460 5.2 -12.5°
Maximum altitude 05:20:34 23° 304° (NW) 1,185 4.7 -12.0°
Drops below altitude 10° 05:23:52 10° 358° (N) 1,808 6.0 -11.2°
Sets 05:26:26 0° 12° (NNE) 2,697 7.1 -10.6°
